This is the latest recevied weather packets stored in our database for station/object KB3KAV. If no packets are shown the sender has not sent any weather packets the latest 1 day(s).
| Time | Temp. | Humidity | Pressure | Rain* | Wind** | Luminosity | Snow |
|---|---|---|---|---|---|---|---|
| 1836274690 | 10.56° C | 95% | 1050.2 hPa | 0 mm | 0 m/s | 0 W/m² | - |
| 1836274543 | 10° C | 95% | 1050.3 hPa | 0 mm | 0 m/s | 0 W/m² | - |
| 1836274086 | 10.56° C | 95% | 1050.3 hPa | 0 mm | 0 m/s | 0 W/m² | - |
| 1778048620 | 11.11° C | 91% | 1036.6 hPa | 0 mm | 0 m/s | 0 W/m² | - |
| 1778048019 | 10.56° C | 91% | 1037 hPa | 0 mm | 0 m/s | 0 W/m² | - |
| 1778047415 | 10.56° C | 92% | 1036.7 hPa | 0 mm | 0.45 m/s, 81° | 0 W/m² | - |
| 1778046814 | 10.56° C | 92% | 1036.9 hPa | 0 mm | 0.45 m/s, 78° | 0 W/m² | - |
| 1778046214 | 10.56° C | 92% | 1037 hPa | 0 mm | 0 m/s | 0 W/m² | - |
| 1778045609 | 10.56° C | 92% | 1037 hPa | 0 mm | 0 m/s | 0 W/m² | - |
| 1778045005 | 10.56° C | 92% | 1037.3 hPa | 0 mm | 0 m/s | 0 W/m² | - |
| 1778044404 | 10.56° C | 91% | 1037.5 hPa | 0 mm | 0.45 m/s, 80° | 0 W/m² | - |
| 1778043799 | 10.56° C | 91% | 1037.3 hPa | 0 mm | 0.45 m/s, 80° | 0 W/m² | - |
| 1778043198 | 10.56° C | 91% | 1037.4 hPa | 0 mm | 0 m/s | 0 W/m² | - |
| 1778042593 | 11.11° C | 91% | 1037.5 hPa | 0 mm | 0 m/s | 0 W/m² | - |
| 1778041993 | 11.11° C | 91% | 1037.2 hPa | 0 mm | 0 m/s | 0 W/m² | - |
| 1778041390 | 11.11° C | 90% | 1037.1 hPa | 0 mm | 0 m/s | 0 W/m² | - |
| 1778040791 | 11.11° C | 90% | 1037.4 hPa | 0 mm | 0 m/s | 0 W/m² | - |
| 1778040185 | 11.67° C | 90% | 1037.6 hPa | 0 mm | 0 m/s | 0 W/m² | - |
| 1778039585 | 11.67° C | 89% | 1037.3 hPa | 0 mm | 0 m/s | 0 W/m² | - |
| 1778038979 | 11.67° C | 89% | 1037.6 hPa | 0 mm | 0 m/s | 0 W/m² | - |
| 1778038379 | 11.67° C | 88% | 1037.6 hPa | 0 mm | 0 m/s | 0 W/m² | - |
| 1778037778 | 12.22° C | 88% | 1037.7 hPa | 0 mm | 0 m/s | 0 W/m² | - |
| 1778037178 | 12.22° C | 88% | 1037.5 hPa | 0 mm | 0 m/s | 0 W/m² | - |
| 1778036574 | 12.78° C | 87% | 1037.4 hPa | 0 mm | 0 m/s | 0 W/m² | - |
| 1778035973 | 12.78° C | 86% | 1037.4 hPa | 0 mm | 0 m/s | 0 W/m² | - |
* Rain latest hour (hover to see other rain measurements)
** Current wind speed in m/s (hover to see current wind gust speed)